Location: Newark
(3.0500°N, 36.0167°E)
Time: 18:40:28
(UTC+00:00)

Transit 2A Rocket - Pass Details

Date: 19 August 2019
Orbit: 592 x 911 km, 66.7° (Epoch: 14 September)

Event Time Altitude Azimuth Distance (km) Brightness Sun altitude
Rises 14:46:36 0° 165° (SSE) 3,527 8.2 13.6°
Reaches altitude 10° 14:50:20 10° 143° (SE) 2,594 7.3 12.7°
Maximum altitude 14:53:36 15° 110° (ESE) 2,250 6.9 11.9°
Drops below altitude 10° 14:56:50 10° 77° (ENE) 2,567 7.2 11.1°
Sets 15:00:28 0° 55° (NE) 3,470 8.0 10.2°
